OH6HPS Weather Reports


time (UTC)temp
C
wind
direction
speed
KPH
gust
KPH
rain 1hr
cm
rain 24hr
cm
rain mn
cm
humidity
%
barometer
mb
20260506135535 12 283 9.7 17.7 0.00 0.00 0.00 26 1012.9
20260506134535 13 272 9.7 14.5 0.00 0.00 0.00 26 1013.0
20260506133536 13 230 6.4 14.5 0.00 0.00 0.00 26 1013.1
20260506132534 13 72 3.2 16.1 0.00 0.00 0.00 24 1013.1
20260506131534 13 212 4.8 20.9 0.00 0.00 0.00 24 1013.0
20260506130534 13 186 8.0 16.1 0.00 0.00 0.00 25 1013.0
20260506125535 13 237 8.0 19.3 0.00 0.00 0.00 25 1012.9
20260506124533 13 214 8.0 17.7 0.00 0.00 0.00 25 1013.0
20260506123533 13 219 8.0 17.7 0.00 0.00 0.00 26 1013.0
20260506122532 13 275 11.3 17.7 0.00 0.00 0.00 32 1013.0
20260506121533 12 219 4.8 14.5 0.00 0.00 0.00 31 1012.9
20260506120533 12 82 6.4 19.3 0.00 0.00 0.00 28 1012.9
20260506115533 12 282 8.0 14.5 0.00 0.00 0.00 31 1013.0
20260506114533 11 69 6.4 11.3 0.00 0.00 0.00 31 1013.0
20260506113533 12 216 3.2 16.1 0.00 0.00 0.00 27 1013.0
20260506112531 12 86 8.0 17.7 0.00 0.00 0.00 30 1013.0
20260506111531 12 231 6.4 14.5 0.00 0.00 0.00 30 1013.0
20260506110531 12 275 4.8 17.7 0.00 0.00 0.00 32 1012.9
20260506105531 12 255 9.7 19.3 0.00 0.00 0.00 32 1013.0
20260506104530 11 204 11.3 20.9 0.00 0.00 0.00 33 1012.9
20260506103529 10 216 8.0 16.1 0.00 0.00 0.00 37 1012.9
20260506102531 11 206 3.2 16.1 0.00 0.00 0.00 36 1012.9
20260506101530 11 244 9.7 19.3 0.00 0.00 0.00 36 1012.8
20260506095530 11 59 6.4 24.1 0.00 0.00 0.00 36 1012.9
20260506094529 11 244 8.0 14.5 0.00 0.00 0.00 35 1012.7
20260506093530 10 235 3.2 19.3 0.00 0.00 0.00 39 1012.7
20260506092527 11 219 6.4 11.3 0.00 0.00 0.00 39 1012.7
20260506091529 11 248 6.4 16.1 0.00 0.00 0.00 38 1012.7
20260506090528 10 195 8.0 19.3 0.00 0.00 0.00 40 1012.6
20260506085528 10 233 6.4 11.3 0.00 0.00 0.00 40 1012.6
20260506084528 10 221 6.4 11.3 0.00 0.00 0.00 41 1012.6
20260506083527 10 224 12.9 19.3 0.00 0.00 0.00 40 1012.6
20260506082527 9 58 1.6 11.3 0.00 0.00 0.00 40 1012.6
20260506081526 10 204 6.4 11.3 0.00 0.00 0.00 40 1012.6
20260506080526 10 209 8.0 25.7 0.00 0.00 0.00 41 1012.5
20260506073526 10 234 9.7 17.7 0.00 0.00 0.00 43 1012.2
20260506072525 10 217 8.0 14.5 0.00 0.00 0.00 46 1012.1
20260506071525 10 116 4.8 19.3 0.00 0.00 0.00 45 1012.2
20260506070526 9 206 6.4 14.5 0.00 0.00 0.00 48 1012.0
20260506061522 8 235 4.8 9.7 0.00 0.00 0.00 60 1011.9
20260506060522 7 250 6.4 9.7 0.00 0.00 0.00 64 1011.8
20260506050521 5 237 3.2 8.0 0.00 0.00 0.00 75 1011.3
20260506044521 4 196 4.8 8.0 0.00 0.00 0.00 80 1011.2
20260506043519 3 200 3.2 6.4 0.00 0.00 0.00 84 1011.1
20260506042520 2 233 1.6 3.2 0.00 0.00 0.00 87 1011.0
20260506041519 1 233 0.0 1.6 0.00 0.00 0.00 89 1010.8
20260506040518 0 233 0.0 0.0 0.00 0.00 0.00 95 1010.7
20260506035519 -1 233 0.0 0.0 0.00 0.00 0.00 95 1010.6
20260506034519 -2 233 0.0 0.0 0.00 0.00 0.00 94 1010.6
20260506033518 -2 233 0.0 0.0 0.00 0.00 0.00 94 1010.4
20260506032519 -2 233 0.0 0.0 0.00 0.00 0.00 93 1010.4
20260506031518 -2 233 0.0 0.0 0.00 0.00 0.00 92 1010.2
20260506030517 -2 233 0.0 1.6 0.00 0.00 0.00 93 1010.1
20260506025517 -2 233 1.6 4.8 0.00 0.00 0.00 93 1010.0
20260506024517 -3 233 0.0 3.2 0.00 0.00 0.00 93 1009.9
20260506023517 -3 233 0.0 0.0 0.00 0.00 0.00 93 1009.9
20260506022517 -3 233 0.0 0.0 0.00 0.00 0.00 93 1009.8
20260506021516 -3 234 0.0 0.0 0.00 0.00 0.00 93 1009.7
20260506020516 -3 234 0.0 0.0 0.00 0.00 0.00 92 1009.7
20260506015516 -3 234 0.0 0.0 0.00 0.00 0.00 91 1009.6
20260506014515 -3 234 0.0 0.0 0.00 0.00 0.00 91 1009.5
20260506013516 -3 234 0.0 0.0 0.00 0.00 0.00 91 1009.3
20260506012515 -3 234 0.0 0.0 0.00 0.00 0.00 91 1009.3
20260506011516 -3 234 0.0 0.0 0.00 0.00 0.00 91 1009.1
20260506010515 -2 234 0.0 0.0 0.00 0.00 0.00 91 1009.1
20260506005514 -2 234 0.0 0.0 0.00 0.00 0.00 91 1009.1
20260506004514 -2 234 0.0 0.0 0.00 0.00 0.00 91 1009.0
20260506003514 -2 234 0.0 0.0 0.00 0.00 0.00 91 1009.0
20260506002513 -2 234 0.0 0.0 0.00 0.00 0.00 90 1008.9
20260506001514 -2 234 0.0 0.0 0.00 0.00 0.00 90 1008.8
20260506000513 -2 234 0.0 0.0 0.00 0.03 0.00 90 1008.7
20260505235514 -2 234 0.0 0.0 0.00 0.03 0.00 89 1008.7
20260505234513 -2 234 0.0 0.0 0.00 0.03 0.00 89 1008.7
20260505233512 -2 234 0.0 0.0 0.00 0.03 0.00 90 1008.8
20260505232513 -2 234 0.0 0.0 0.00 0.03 0.00 89 1008.6
20260505231512 -2 234 0.0 0.0 0.00 0.03 0.00 88 1008.7
20260505230511 -1 234 0.0 0.0 0.00 0.03 0.00 87 1008.6
20260505225511 -1 234 0.0 0.0 0.00 0.03 0.00 87 1008.6
20260505224511 -1 234 0.0 0.0 0.00 0.03 0.00 87 1008.6
20260505223511 -1 234 0.0 0.0 0.00 0.03 0.00 86 1008.5
20260505222512 -1 234 0.0 0.0 0.00 0.03 0.00 85 1008.5
20260505221510 -1 234 0.0 0.0 0.00 0.03 0.00 85 1008.4
20260505220510 0 234 0.0 0.0 0.00 0.03 0.00 84 1008.4
20260505215511 0 234 0.0 0.0 0.00 0.03 0.00 83 1008.4
20260505214509 0 234 0.0 0.0 0.00 0.03 0.00 82 1008.4
20260505213510 0 234 0.0 0.0 0.00 0.03 0.00 81 1008.4
20260505212509 0 234 0.0 0.0 0.00 0.03 0.00 81 1008.3
20260505211508 0 234 0.0 1.6 0.00 0.03 0.00 81 1008.2
20260505210509 1 234 0.0 1.6 0.00 0.03 0.00 80 1008.1
20260505205509 1 234 0.0 3.2 0.00 0.03 0.03 80 1008.1
20260505204508 1 234 1.6 4.8 0.00 0.03 0.03 79 1008.0
20260505203509 1 235 0.0 3.2 0.00 0.03 0.03 79 1007.8
20260505202508 1 235 1.6 3.2 0.00 0.03 0.03 77 1007.8
20260505201508 2 234 0.0 3.2 0.00 0.05 0.03 77 1007.7
20260505200507 2 235 0.0 3.2 0.00 0.10 0.03 77 1007.6
20260505195504 2 235 3.2 4.8 0.00 0.10 0.03 76 1007.5
20260505194504 2 235 0.0 3.2 0.00 0.10 0.03 75 1007.5
20260505193506 3 235 0.0 3.2 0.00 0.10 0.03 74 1007.4
20260505192504 3 235 0.0 3.2 0.00 0.10 0.03 72 1007.4
20260505191518 3 235 0.0 3.2 0.00 0.10 0.03 70 1007.3
20260505190504 4 226 1.6 6.4 0.00 0.10 0.03 69 1007.2
20260505185505 5 231 1.6 4.8 0.00 0.10 0.03 68 1007.2
20260505184504 5 231 1.6 6.4 0.00 0.10 0.03 66 1007.1
20260505183505 5 235 1.6 8.0 0.00 0.10 0.03 64 1007.0
20260505182510 6 238 0.0 8.0 0.00 0.10 0.03 63 1006.8
20260505181504 6 243 3.2 4.8 0.00 0.10 0.03 61 1006.7
20260505180506 6 252 3.2 6.4 0.00 0.10 0.03 59 1006.6
20260505175505 6 271 3.2 11.3 0.00 0.10 0.03 58 1006.5
20260505174504 7 226 4.8 14.5 0.00 0.10 0.03 56 1006.5
20260505173504 7 251 6.4 14.5 0.00 0.10 0.03 55 1006.5
20260505172506 7 228 3.2 11.3 0.00 0.10 0.03 55 1006.3
20260505171505 7 203 4.8 14.5 0.00 0.10 0.03 53 1006.3
20260505170504 7 221 4.8 14.5 0.00 0.10 0.03 52 1006.3
20260505165504 7 228 6.4 17.7 0.00 0.10 0.03 51 1006.1
20260505164505 8 203 9.7 16.1 0.00 0.10 0.03 50 1006.1
20260505163504 8 227 6.4 20.9 0.00 0.10 0.03 48 1005.9
20260505162504 9 230 9.7 20.9 0.00 0.10 0.03 48 1006.0
20260505161504 10 221 8.0 20.9 0.00 0.10 0.03 46 1005.9
20260505160503 10 234 9.7 17.7 0.00 0.10 0.03 46 1005.9
20260505152504 10 240 6.4 22.5 0.00 0.10 0.03 46 1005.5
20260505151504 10 243 6.4 16.1 0.00 0.10 0.03 47 1005.5
20260505150504 10 247 11.3 29.0 0.00 0.10 0.03 47 1005.5
20260505140515 11 261 14.5 25.7 0.00 0.10 0.03 43 1005.2